Home   Weather   Gaggenau   Past weeks

Flag for Germany Past Weather in Gaggenau, Baden-Württemberg, Germany — Yesterday and Last 2 Weeks

46 °F

Light rain. Partly cloudy.

Feels Like: 45 °F
Forecast: 48 / 64 °F
Wind: 3 mph from South

Location: Karlsruhe - Baden Wurttemberg

Current Time: Oct 23, 2016 at 7:59:29 PM

Latest Report: Oct 23, 2016 at 6:50 PM

Visibility: 5 mi

Pressure: 29.86 "Hg

Humidity: 93%

Dew Point: 45 °F

Location of GaggenauLocation

Past Weather in Gaggenau — Graph


Gaggenau Temperature Yesterday

Maximum temperature yesterday: 52 °F (at 12:50 PM)
Minimum temperature yesterday: 39 °F (at 11:50 PM)
Average temperature yesterday: 47 °F

High & Low Weather Summary for the Past Weeks

High63 °F (Oct 15, 4:20 PM)100% (Oct 8, 10:20 PM)30.27 "Hg (Oct 8, 10:20 PM)
Low32 °F (Oct 23, 4:50 AM)51% (Oct 12, 4:20 PM)29.62 "Hg (Oct 14, 6:50 PM)
Average48 °F87%30.03 "Hg
* Reported Oct 8 6:20 PM — Oct 23 6:20 PM, Gaggenau, Weather by CustomWeather, © 2016

Note: Actual official high and low records may vary slightly from our data, if they occured in-between our weather recording intervals... More about our weather records


Gaggenau Weather History for the Previous 24 Hours

Scroll right to see more
Time TempWeatherWind HumidityBarometerVisibility
6:20 PM
Sun, Oct 23
46 °FBroken clouds.3 mph93%29.86 "HgN/A
5:50 PM48 °FBroken clouds.2 mph87%29.86 "HgN/A
5:20 PM48 °FBroken clouds.No wind82%29.86 "HgN/A
4:50 PM48 °FPartly sunny.1 mph82%29.86 "HgN/A
4:20 PM48 °FPartly sunny.2 mph82%29.86 "HgN/A
3:50 PM48 °FBroken clouds.2 mph82%29.86 "HgN/A
3:20 PM48 °FPartly sunny.1 mph82%29.86 "HgN/A
2:50 PM46 °FPartly sunny.2 mph87%29.89 "HgN/A
2:20 PM46 °FBroken clouds.3 mph87%29.89 "HgN/A
1:50 PM46 °FBroken clouds.5 mph87%29.89 "Hg4 mi
12:50 PM46 °FFog.2 mph87%29.89 "Hg3 mi
12:20 PM45 °FFog.5 mph93%29.89 "Hg2 mi
11:50 AM43 °FFog.5 mph100%29.89 "Hg1 mi
11:20 AM43 °FFog.7 mph100%29.89 "Hg1 mi
10:50 AM41 °FFog.3 mph100%29.89 "Hg1 mi
10:20 AM41 °FFog.5 mph100%29.89 "Hg1 mi
9:50 AM39 °FFog.3 mph100%29.89 "Hg1 mi
9:20 AM37 °FFog.5 mph100%29.89 "Hg1 mi
8:50 AM37 °FFog.5 mph100%29.89 "Hg1 mi
8:20 AM36 °FFog.3 mph100%29.89 "Hg1 mi
7:50 AM34 °FFog.5 mph100%29.89 "Hg0 mi
7:20 AM34 °FLight fog.1 mph100%29.89 "Hg1 mi
6:50 AM32 °FLight fog.1 mph100%29.89 "Hg1 mi
6:20 AM32 °FLight fog.No wind100%29.89 "Hg1 mi
5:50 AM32 °FFog.1 mph100%29.89 "Hg1 mi
5:20 AM32 °FFog.2 mph100%29.89 "HgN/A
4:50 AM32 °FFog.2 mph100%29.89 "HgN/A
2:20 AM34 °FClear.1 mph100%29.95 "Hg10 mi
1:50 AM36 °FClear.No wind100%29.95 "Hg10 mi
12:20 AM39 °FClear.1 mph100%29.95 "Hg10 mi
11:50 PM
Sat, Oct 22
39 °FClear.No wind100%29.95 "Hg10 mi
11:20 PM41 °FClear.1 mph100%29.95 "Hg10 mi
10:50 PM43 °FClear.1 mph100%29.95 "Hg5 mi
10:20 PM45 °FClear.1 mph93%29.95 "Hg10 mi
9:50 PM45 °FClear.No wind93%29.95 "Hg10 mi
9:20 PM46 °FClear.1 mph93%29.95 "Hg10 mi
8:50 PM46 °FClear.1 mph93%29.95 "Hg10 mi
8:20 PM48 °FClear.No wind87%29.95 "Hg10 mi
7:50 PM48 °FClear.1 mph87%29.95 "Hg10 mi
7:20 PM48 °FClear.No wind87%29.95 "Hg10 mi
Weather by CustomWeather, © 2016

See weather overviewHow to use our weather pages